Location: Newark
(35.2672°N, 80.7344°W)
Time: 07:25:05
(UTC+00:00)

SR - Pass Details

Date: 31 January 2020
Orbit: 575 x 881 km, 66.7° (Epoch: 20 February)

Event Time Altitude Azimuth Distance (km) Brightness Sun altitude
Exits shadow 11:14:03 - 335° (NNW) 2,872 ? -14.4°
Reaches altitude 10° 11:15:23 10° 336° (NNW) 2,355 ? -14.1°
Maximum altitude 11:20:47 76° 63° (ENE) 762 ? -13.1°
Drops below altitude 10° 11:25:39 10° 149° (SSE) 2,136 ? -12.1°
Sets 11:27:52 0° 151° (SSE) 3,001 ? -11.6°
